Year,Month,Day,Hour,Minute,Value (Times are PST for temperature in C)
2007,08,15,00,00,15.90
2007,08,15,00,01,15.90
2007,08,15,00,02,15.90
2007,08,15,00,03,16.00
2007,08,15,00,04,16.10
2007,08,15,00,05,16.10
2007,08,15,00,06,16.10
2007,08,15,00,07,16.10
2007,08,15,00,08,16.10
2007,08,15,00,09,16.10
2007,08,15,00,10,16.00
2007,08,15,00,11,15.90
2007,08,15,00,12,15.80
2007,08,15,00,13,15.80
2007,08,15,00,14,15.80
2007,08,15,00,15,15.70
2007,08,15,00,16,15.60
2007,08,15,00,17,15.60
2007,08,15,00,18,15.60
2007,08,15,00,19,15.60
2007,08,15,00,20,15.60
2007,08,15,00,21,15.60
2007,08,15,00,22,15.60
2007,08,15,00,23,15.60
2007,08,15,00,24,15.60
2007,08,15,00,25,15.50
2007,08,15,00,26,15.50
2007,08,15,00,27,15.60
2007,08,15,00,28,15.60
2007,08,15,00,29,15.60
2007,08,15,00,30,15.60
2007,08,15,00,31,15.70
2007,08,15,00,32,15.70
2007,08,15,00,33,15.80
2007,08,15,00,34,15.80
2007,08,15,00,35,15.80
2007,08,15,00,36,15.80
2007,08,15,00,37,15.90
2007,08,15,00,38,15.90
2007,08,15,00,39,15.90
2007,08,15,00,40,15.90
2007,08,15,00,41,15.90
2007,08,15,00,42,15.90
2007,08,15,00,43,15.80
2007,08,15,00,44,15.80
2007,08,15,00,45,15.90
2007,08,15,00,46,15.90
2007,08,15,00,47,15.90
2007,08,15,00,48,16.00
2007,08,15,00,49,16.10
2007,08,15,00,50,16.10
2007,08,15,00,51,15.90
2007,08,15,00,52,15.90
2007,08,15,00,53,15.90
2007,08,15,00,54,15.80
2007,08,15,00,55,15.80
2007,08,15,00,56,15.80
2007,08,15,00,57,15.80
2007,08,15,00,58,15.80
2007,08,15,00,59,15.90
2007,08,15,01,00,15.90
2007,08,15,01,01,16.00
2007,08,15,01,02,16.10
2007,08,15,01,03,16.10
2007,08,15,01,04,16.10
2007,08,15,01,05,16.10
2007,08,15,01,06,16.10
2007,08,15,01,07,16.10
2007,08,15,01,08,16.10
2007,08,15,01,09,16.10
2007,08,15,01,10,16.10
2007,08,15,01,11,15.90
2007,08,15,01,12,15.90
2007,08,15,01,13,15.80
2007,08,15,01,14,15.80
2007,08,15,01,15,15.70
2007,08,15,01,16,15.60
2007,08,15,01,17,15.60
2007,08,15,01,18,15.50
2007,08,15,01,19,15.50
2007,08,15,01,20,15.40
2007,08,15,01,21,15.30
2007,08,15,01,22,15.30
2007,08,15,01,23,15.30
2007,08,15,01,24,15.10
2007,08,15,01,25,15.00
2007,08,15,01,26,14.90
2007,08,15,01,27,14.70
2007,08,15,01,28,14.60
2007,08,15,01,29,14.60
2007,08,15,01,30,14.50
2007,08,15,01,31,14.50
2007,08,15,01,32,14.50
2007,08,15,01,33,14.50
2007,08,15,01,34,14.50
2007,08,15,01,35,14.50
2007,08,15,01,36,14.40
2007,08,15,01,37,14.40
2007,08,15,01,38,14.40
2007,08,15,01,39,14.30
2007,08,15,01,40,14.30
2007,08,15,01,41,14.20
2007,08,15,01,42,14.20
2007,08,15,01,43,14.20
2007,08,15,01,44,14.10
2007,08,15,01,45,14.00
2007,08,15,01,46,14.00
2007,08,15,01,47,13.90
2007,08,15,01,48,13.90
2007,08,15,01,49,13.80
2007,08,15,01,50,13.80
2007,08,15,01,51,13.70
2007,08,15,01,52,13.70
2007,08,15,01,53,13.70
2007,08,15,01,54,13.60
2007,08,15,01,55,13.60
2007,08,15,01,56,13.60
2007,08,15,01,57,13.60
2007,08,15,01,58,13.60
2007,08,15,01,59,13.60
2007,08,15,02,00,13.60
2007,08,15,02,01,13.60
2007,08,15,02,02,13.50
2007,08,15,02,03,13.50
2007,08,15,02,04,13.50
2007,08,15,02,05,13.50
2007,08,15,02,06,13.50
2007,08,15,02,07,13.50
2007,08,15,02,08,13.50
2007,08,15,02,09,13.50
2007,08,15,02,10,13.50
2007,08,15,02,11,13.40
2007,08,15,02,12,13.40
2007,08,15,02,13,13.40
2007,08,15,02,14,13.40
2007,08,15,02,15,13.40
2007,08,15,02,16,13.40
2007,08,15,02,17,13.40
2007,08,15,02,18,13.40
2007,08,15,02,19,13.40
2007,08,15,02,20,13.50
2007,08,15,02,21,13.60
2007,08,15,02,22,13.70
2007,08,15,02,23,13.70
2007,08,15,02,24,13.80
2007,08,15,02,25,13.90
2007,08,15,02,26,14.00
2007,08,15,02,27,14.00
2007,08,15,02,28,14.10
2007,08,15,02,29,14.20
2007,08,15,02,30,14.20
2007,08,15,02,31,14.20
2007,08,15,02,32,14.20
2007,08,15,02,33,14.20
2007,08,15,02,34,14.20
2007,08,15,02,35,14.20
2007,08,15,02,36,14.20
2007,08,15,02,37,14.20
2007,08,15,02,38,14.20
2007,08,15,02,39,14.20
2007,08,15,02,40,14.30
2007,08,15,02,41,14.30
2007,08,15,02,42,14.40
2007,08,15,02,43,14.40
2007,08,15,02,44,14.30
2007,08,15,02,45,14.30
2007,08,15,02,46,14.20
2007,08,15,02,47,14.20
2007,08,15,02,48,14.20
2007,08,15,02,49,14.20
2007,08,15,02,50,14.10
2007,08,15,02,51,14.00
2007,08,15,02,52,14.00
2007,08,15,02,53,13.90
2007,08,15,02,54,13.90
2007,08,15,02,55,13.90
2007,08,15,02,56,14.00
2007,08,15,02,57,14.00
2007,08,15,02,58,14.00
2007,08,15,02,59,14.00
2007,08,15,03,00,14.10
2007,08,15,03,01,14.20
2007,08,15,03,02,14.20
2007,08,15,03,03,14.20
2007,08,15,03,04,14.20
2007,08,15,03,05,14.20
2007,08,15,03,06,14.20
2007,08,15,03,07,14.20
2007,08,15,03,08,14.20
2007,08,15,03,09,14.20
2007,08,15,03,10,14.10
2007,08,15,03,11,14.00
2007,08,15,03,12,14.00
2007,08,15,03,13,13.90
2007,08,15,03,14,13.90
2007,08,15,03,15,13.90
2007,08,15,03,16,14.00
2007,08,15,03,17,14.00
2007,08,15,03,18,14.00
2007,08,15,03,19,14.10
2007,08,15,03,20,14.10
2007,08,15,03,21,14.10
2007,08,15,03,22,14.00
2007,08,15,03,23,14.00
2007,08,15,03,24,14.00
2007,08,15,03,25,14.00
2007,08,15,03,26,14.00
2007,08,15,03,27,14.00
2007,08,15,03,28,14.00
2007,08,15,03,29,13.90
2007,08,15,03,30,13.90
2007,08,15,03,31,13.90
2007,08,15,03,32,13.90
2007,08,15,03,33,13.90
2007,08,15,03,34,13.90
2007,08,15,03,35,13.90
2007,08,15,03,36,13.90
2007,08,15,03,37,13.90
2007,08,15,03,38,14.00
2007,08,15,03,39,14.00
2007,08,15,03,40,14.00
2007,08,15,03,41,14.00
2007,08,15,03,42,14.00
2007,08,15,03,43,14.00
2007,08,15,03,44,14.00
2007,08,15,03,45,14.00
2007,08,15,03,46,14.00
2007,08,15,03,47,14.00
2007,08,15,03,48,14.00
2007,08,15,03,49,13.90
2007,08,15,03,50,13.90
2007,08,15,03,51,13.80
2007,08,15,03,52,13.80
2007,08,15,03,53,13.70
2007,08,15,03,54,13.70
2007,08,15,03,55,13.70
2007,08,15,03,56,13.70
2007,08,15,03,57,13.70
2007,08,15,03,58,13.60
2007,08,15,03,59,13.60
2007,08,15,04,00,13.60
2007,08,15,04,01,13.50
2007,08,15,04,02,13.50
2007,08,15,04,03,13.50
2007,08,15,04,04,13.50
2007,08,15,04,05,13.40
2007,08,15,04,06,13.30
2007,08,15,04,07,13.30
2007,08,15,04,08,13.30
2007,08,15,04,09,13.20
2007,08,15,04,10,13.10
2007,08,15,04,11,13.10
2007,08,15,04,12,13.00
2007,08,15,04,13,13.00
2007,08,15,04,14,13.00
2007,08,15,04,15,12.90
2007,08,15,04,16,12.90
2007,08,15,04,17,12.90
2007,08,15,04,18,12.90
2007,08,15,04,19,12.90
2007,08,15,04,20,12.90
2007,08,15,04,21,13.00
2007,08,15,04,22,13.00
2007,08,15,04,23,13.10
2007,08,15,04,24,13.10
2007,08,15,04,25,13.10
2007,08,15,04,26,13.20
2007,08,15,04,27,13.20
2007,08,15,04,28,13.20
2007,08,15,04,29,13.20
2007,08,15,04,30,13.10
2007,08,15,04,31,13.10
2007,08,15,04,32,13.10
2007,08,15,04,33,13.00
2007,08,15,04,34,13.00
2007,08,15,04,35,12.90
2007,08,15,04,36,12.80
2007,08,15,04,37,12.80
2007,08,15,04,38,12.80
2007,08,15,04,39,12.80
2007,08,15,04,40,12.90
2007,08,15,04,41,12.90
2007,08,15,04,42,13.00
2007,08,15,04,43,13.00
2007,08,15,04,44,13.00
2007,08,15,04,45,13.00
2007,08,15,04,46,13.00
2007,08,15,04,47,13.00
2007,08,15,04,48,12.90
2007,08,15,04,49,12.90
2007,08,15,04,50,12.90
2007,08,15,04,51,12.90
2007,08,15,04,52,12.90
2007,08,15,04,53,12.90
2007,08,15,04,54,13.00
2007,08,15,04,55,13.00
2007,08,15,04,56,13.00
2007,08,15,04,57,13.00
2007,08,15,04,58,13.00
2007,08,15,04,59,13.00
2007,08,15,05,00,13.00
2007,08,15,05,01,13.00
2007,08,15,05,02,13.00
2007,08,15,05,03,12.90
2007,08,15,05,04,12.90
2007,08,15,05,05,12.90
2007,08,15,05,06,12.80
2007,08,15,05,07,12.80
2007,08,15,05,08,12.80
2007,08,15,05,09,12.80
2007,08,15,05,10,12.80
2007,08,15,05,11,12.80
2007,08,15,05,12,12.80
2007,08,15,05,13,12.80
2007,08,15,05,14,12.80
2007,08,15,05,15,12.80
2007,08,15,05,16,12.80
2007,08,15,05,17,12.80
2007,08,15,05,18,12.70
2007,08,15,05,19,12.60
2007,08,15,05,20,12.60
2007,08,15,05,21,12.50
2007,08,15,05,22,12.50
2007,08,15,05,23,12.40
2007,08,15,05,24,12.40
2007,08,15,05,25,12.30
2007,08,15,05,26,12.30
2007,08,15,05,27,12.30
2007,08,15,05,28,12.20
2007,08,15,05,29,12.20
2007,08,15,05,30,12.20
2007,08,15,05,31,12.30
2007,08,15,05,32,12.30
2007,08,15,05,33,12.30
2007,08,15,05,34,12.30
2007,08,15,05,35,12.30
2007,08,15,05,36,12.40
2007,08,15,05,37,12.40
2007,08,15,05,38,12.40
2007,08,15,05,39,12.40
2007,08,15,05,40,12.50
2007,08,15,05,41,12.50
2007,08,15,05,42,12.50
2007,08,15,05,43,12.50
2007,08,15,05,44,12.50
2007,08,15,05,45,12.40
2007,08,15,05,46,12.40
2007,08,15,05,47,12.40
2007,08,15,05,48,12.40
2007,08,15,05,49,12.40
2007,08,15,05,50,12.30
2007,08,15,05,51,12.30
2007,08,15,05,52,12.30
2007,08,15,05,53,12.30
2007,08,15,05,54,12.30
2007,08,15,05,55,12.30
2007,08,15,05,56,12.30
2007,08,15,05,57,12.30
2007,08,15,05,58,12.30
2007,08,15,05,59,12.30
2007,08,15,06,00,12.30
2007,08,15,06,01,12.30
2007,08,15,06,02,12.30
2007,08,15,06,03,12.30
2007,08,15,06,04,12.30
2007,08,15,06,05,12.30
2007,08,15,06,06,12.30
2007,08,15,06,07,12.30
2007,08,15,06,08,12.40
2007,08,15,06,09,12.40
2007,08,15,06,10,12.40
2007,08,15,06,11,12.40
2007,08,15,06,12,12.40
2007,08,15,06,13,12.40
2007,08,15,06,14,12.40
2007,08,15,06,15,12.40
2007,08,15,06,16,12.40
2007,08,15,06,17,12.50
2007,08,15,06,18,12.50
2007,08,15,06,19,12.50
2007,08,15,06,20,12.60
2007,08,15,06,21,12.60
2007,08,15,06,22,12.60
2007,08,15,06,23,12.60
2007,08,15,06,24,12.60
2007,08,15,06,25,12.60
2007,08,15,06,26,12.60
2007,08,15,06,27,12.60
2007,08,15,06,28,12.60
2007,08,15,06,29,12.60
2007,08,15,06,30,12.60
2007,08,15,06,31,12.60
2007,08,15,06,32,12.60
2007,08,15,06,33,12.60
2007,08,15,06,34,12.60
2007,08,15,06,35,12.70
2007,08,15,06,36,12.70
2007,08,15,06,37,12.60
2007,08,15,06,38,12.60
2007,08,15,06,39,12.60
2007,08,15,06,40,12.60
2007,08,15,06,41,12.60
2007,08,15,06,42,12.60
2007,08,15,06,43,12.60
2007,08,15,06,44,12.60
2007,08,15,06,45,12.50
2007,08,15,06,46,12.50
2007,08,15,06,47,12.50
2007,08,15,06,48,12.50
2007,08,15,06,49,12.50
2007,08,15,06,50,12.50
2007,08,15,06,51,12.50
2007,08,15,06,52,12.50
2007,08,15,06,53,12.50
2007,08,15,06,54,12.50
2007,08,15,06,55,12.50
2007,08,15,06,56,12.50
2007,08,15,06,57,12.60
2007,08,15,06,58,12.60
2007,08,15,06,59,12.60
2007,08,15,07,00,12.70
2007,08,15,07,01,12.80
2007,08,15,07,02,12.80
2007,08,15,07,03,12.90
2007,08,15,07,04,13.00
2007,08,15,07,05,13.10
2007,08,15,07,06,13.10
2007,08,15,07,07,13.20
2007,08,15,07,08,13.30
2007,08,15,07,09,13.30
2007,08,15,07,10,13.30
2007,08,15,07,11,13.40
2007,08,15,07,12,13.50
2007,08,15,07,13,13.50
2007,08,15,07,14,13.60
2007,08,15,07,15,13.60
2007,08,15,07,16,13.70
2007,08,15,07,17,13.70
2007,08,15,07,18,13.70
2007,08,15,07,19,13.80
2007,08,15,07,20,13.80
2007,08,15,07,21,13.90
2007,08,15,07,22,13.90
2007,08,15,07,23,14.00
2007,08,15,07,24,14.10
2007,08,15,07,25,14.20
2007,08,15,07,26,14.20
2007,08,15,07,27,14.40
2007,08,15,07,28,14.50
2007,08,15,07,29,14.60
2007,08,15,07,30,14.70
2007,08,15,07,31,14.80
2007,08,15,07,32,14.80
2007,08,15,07,33,14.90
2007,08,15,07,34,15.00
2007,08,15,07,35,15.00
2007,08,15,07,36,15.10
2007,08,15,07,37,15.20
2007,08,15,07,38,15.30
2007,08,15,07,39,15.40
2007,08,15,07,40,15.50
2007,08,15,07,41,15.60
2007,08,15,07,42,15.70
2007,08,15,07,43,15.70
2007,08,15,07,44,15.80
2007,08,15,07,45,15.90
2007,08,15,07,46,16.00
2007,08,15,07,47,16.10
2007,08,15,07,48,16.20
2007,08,15,07,49,16.30
2007,08,15,07,50,16.40
2007,08,15,07,51,16.60
2007,08,15,07,52,16.70
2007,08,15,07,53,16.70
2007,08,15,07,54,16.90
2007,08,15,07,55,16.90
2007,08,15,07,56,17.00
2007,08,15,07,57,17.10
2007,08,15,07,58,17.30
2007,08,15,07,59,17.30
2007,08,15,08,00,17.30
2007,08,15,08,01,17.40
2007,08,15,08,02,17.50
2007,08,15,08,03,17.50
2007,08,15,08,04,17.60
2007,08,15,08,05,17.70
2007,08,15,08,06,17.70
2007,08,15,08,07,17.80
2007,08,15,08,08,17.80
2007,08,15,08,09,17.90
2007,08,15,08,10,17.90
2007,08,15,08,11,17.90
2007,08,15,08,12,18.00
2007,08,15,08,13,18.10
2007,08,15,08,14,18.10
2007,08,15,08,15,18.20
2007,08,15,08,16,18.20
2007,08,15,08,17,18.20
2007,08,15,08,18,18.30
2007,08,15,08,19,18.40
2007,08,15,08,20,18.40
2007,08,15,08,21,18.50
2007,08,15,08,22,18.50
2007,08,15,08,23,18.50
2007,08,15,08,24,18.60
2007,08,15,08,25,18.60
2007,08,15,08,26,18.60
2007,08,15,08,27,18.60
2007,08,15,08,28,18.70
2007,08,15,08,29,18.70
2007,08,15,08,30,18.70
2007,08,15,08,31,18.80
2007,08,15,08,32,18.80
2007,08,15,08,33,18.90
2007,08,15,08,34,18.90
2007,08,15,08,35,18.90
2007,08,15,08,36,18.90
2007,08,15,08,37,18.90
2007,08,15,08,38,18.90
2007,08,15,08,39,18.90
2007,08,15,08,40,18.90
2007,08,15,08,41,18.90
2007,08,15,08,42,18.90
2007,08,15,08,43,18.90
2007,08,15,08,44,18.90
2007,08,15,08,45,18.90
2007,08,15,08,46,18.90
2007,08,15,08,47,18.90
2007,08,15,08,48,18.90
2007,08,15,08,49,18.90
2007,08,15,08,50,18.90
2007,08,15,08,51,19.00
2007,08,15,08,52,19.10
2007,08,15,08,53,19.10
2007,08,15,08,54,19.10
2007,08,15,08,55,19.20
2007,08,15,08,56,19.30
2007,08,15,08,57,19.30
2007,08,15,08,58,19.30
2007,08,15,08,59,19.40
2007,08,15,09,00,19.40
2007,08,15,09,01,19.40
2007,08,15,09,02,19.50
2007,08,15,09,03,19.50
2007,08,15,09,04,19.50
2007,08,15,09,05,19.60
2007,08,15,09,06,19.60
2007,08,15,09,07,19.60
2007,08,15,09,08,19.60
2007,08,15,09,09,19.60
2007,08,15,09,10,19.60
2007,08,15,09,11,19.60
2007,08,15,09,12,19.70
2007,08,15,09,13,19.70
2007,08,15,09,14,19.70
2007,08,15,09,15,19.80
2007,08,15,09,16,19.80
2007,08,15,09,17,19.90
2007,08,15,09,18,19.90
2007,08,15,09,19,19.90
2007,08,15,09,20,19.90
2007,08,15,09,21,20.00
2007,08,15,09,22,20.10
2007,08,15,09,23,20.10
2007,08,15,09,24,20.20
2007,08,15,09,25,20.20
2007,08,15,09,26,20.20
2007,08,15,09,27,20.20
2007,08,15,09,28,20.20
2007,08,15,09,29,20.20
2007,08,15,09,30,20.20
2007,08,15,09,31,20.20
2007,08,15,09,32,20.20
2007,08,15,09,33,20.20
2007,08,15,09,34,20.30
2007,08,15,09,35,20.30
2007,08,15,09,36,20.40
2007,08,15,09,37,20.40
2007,08,15,09,38,20.50
2007,08,15,09,39,20.50
2007,08,15,09,40,20.60
2007,08,15,09,41,20.60
2007,08,15,09,42,20.60
2007,08,15,09,43,20.60
2007,08,15,09,44,20.50
2007,08,15,09,45,20.50
2007,08,15,09,46,20.50
2007,08,15,09,47,20.50
2007,08,15,09,48,20.50
2007,08,15,09,49,20.50
2007,08,15,09,50,20.50
2007,08,15,09,51,20.50
2007,08,15,09,52,20.50
2007,08,15,09,53,20.50
2007,08,15,09,54,20.60
2007,08,15,09,55,20.60
2007,08,15,09,56,20.70
2007,08,15,09,57,20.70
2007,08,15,09,58,20.70
2007,08,15,09,59,20.70
2007,08,15,10,00,20.70
2007,08,15,10,01,20.70
2007,08,15,10,02,20.60
2007,08,15,10,03,20.60
2007,08,15,10,04,20.60
2007,08,15,10,05,20.60
2007,08,15,10,06,20.70
2007,08,15,10,07,20.80
2007,08,15,10,08,20.80
2007,08,15,10,09,20.90
2007,08,15,10,10,21.00
2007,08,15,10,11,21.10
2007,08,15,10,12,21.20
2007,08,15,10,13,21.20
2007,08,15,10,14,21.30
2007,08,15,10,15,21.30
2007,08,15,10,16,21.30
2007,08,15,10,17,21.30
2007,08,15,10,18,21.40
2007,08,15,10,19,21.40
2007,08,15,10,20,21.30
2007,08,15,10,21,21.30
2007,08,15,10,22,21.30
2007,08,15,10,23,21.30
2007,08,15,10,24,21.40
2007,08,15,10,25,21.50
2007,08,15,10,26,21.60
2007,08,15,10,27,21.60
2007,08,15,10,28,21.60
2007,08,15,10,29,21.60
2007,08,15,10,30,21.50
2007,08,15,10,31,21.40
2007,08,15,10,32,21.40
2007,08,15,10,33,21.40
2007,08,15,10,34,21.30
2007,08,15,10,35,21.30
2007,08,15,10,36,21.30
2007,08,15,10,37,21.30
2007,08,15,10,38,21.30
2007,08,15,10,39,21.30
2007,08,15,10,40,21.30
2007,08,15,10,41,21.30
2007,08,15,10,42,21.30
2007,08,15,10,43,21.40
2007,08,15,10,44,21.40
2007,08,15,10,45,21.50
2007,08,15,10,46,21.60
2007,08,15,10,47,21.60
2007,08,15,10,48,21.60
2007,08,15,10,49,21.70
2007,08,15,10,50,21.90
2007,08,15,10,51,22.00
2007,08,15,10,52,22.00
2007,08,15,10,53,22.10
2007,08,15,10,54,22.10
2007,08,15,10,55,22.10
2007,08,15,10,56,22.20
2007,08,15,10,57,22.20
2007,08,15,10,58,22.30
2007,08,15,10,59,22.30
2007,08,15,11,00,22.40
2007,08,15,11,01,22.40
2007,08,15,11,02,22.40
2007,08,15,11,03,22.40
2007,08,15,11,04,22.40
2007,08,15,11,05,22.40
2007,08,15,11,06,22.30
2007,08,15,11,07,22.30
2007,08,15,11,08,22.20
2007,08,15,11,09,22.20
2007,08,15,11,10,22.20
2007,08,15,11,11,22.10
2007,08,15,11,12,22.20
2007,08,15,11,13,22.20
2007,08,15,11,14,22.20
2007,08,15,11,15,22.30
2007,08,15,11,16,22.30
2007,08,15,11,17,22.40
2007,08,15,11,18,22.40
2007,08,15,11,19,22.40
2007,08,15,11,20,22.40
2007,08,15,11,21,22.50
2007,08,15,11,22,22.50
2007,08,15,11,23,22.60
2007,08,15,11,24,22.60
2007,08,15,11,25,22.70
2007,08,15,11,26,22.70
2007,08,15,11,27,22.80
2007,08,15,11,28,22.80
2007,08,15,11,29,22.80
2007,08,15,11,30,22.80
2007,08,15,11,31,22.90
2007,08,15,11,32,22.90
2007,08,15,11,33,23.00
2007,08,15,11,34,23.10
2007,08,15,11,35,23.20
2007,08,15,11,36,23.30
2007,08,15,11,37,23.30
2007,08,15,11,38,23.30
2007,08,15,11,39,23.30
2007,08,15,11,40,23.30
2007,08,15,11,41,23.10
2007,08,15,11,42,23.00
2007,08,15,11,43,22.90
2007,08,15,11,44,22.80
2007,08,15,11,45,22.70
2007,08,15,11,46,22.70
2007,08,15,11,47,22.60
2007,08,15,11,48,22.60
2007,08,15,11,49,22.60
2007,08,15,11,50,22.60
2007,08,15,11,51,22.60
2007,08,15,11,52,22.60
2007,08,15,11,53,22.60
2007,08,15,11,54,22.60
2007,08,15,11,55,22.60
2007,08,15,11,56,22.60
2007,08,15,11,57,22.70
2007,08,15,11,58,22.70
2007,08,15,11,59,22.80
2007,08,15,12,00,22.90
2007,08,15,12,01,23.00
2007,08,15,12,02,23.20
2007,08,15,12,03,23.30
2007,08,15,12,04,23.40
2007,08,15,12,05,23.50
2007,08,15,12,06,23.60
2007,08,15,12,07,23.70
2007,08,15,12,08,23.70
2007,08,15,12,09,23.70
2007,08,15,12,10,23.70
2007,08,15,12,11,23.70
2007,08,15,12,12,23.70
2007,08,15,12,13,23.60
2007,08,15,12,14,23.60
2007,08,15,12,15,23.70
2007,08,15,12,16,23.70
2007,08,15,12,17,23.70
2007,08,15,12,18,23.80
2007,08,15,12,19,24.00
2007,08,15,12,20,24.10
2007,08,15,12,21,24.10
2007,08,15,12,22,24.10
2007,08,15,12,23,24.00
2007,08,15,12,24,23.90
2007,08,15,12,25,23.90
2007,08,15,12,26,23.90
2007,08,15,12,27,23.90
2007,08,15,12,28,23.90
2007,08,15,12,29,23.90
2007,08,15,12,30,23.90
2007,08,15,12,31,23.80
2007,08,15,12,32,23.80
2007,08,15,12,33,23.70
2007,08,15,12,34,23.80
2007,08,15,12,35,23.80
2007,08,15,12,36,23.90
2007,08,15,12,37,24.00
2007,08,15,12,38,24.10
2007,08,15,12,39,24.20
2007,08,15,12,40,24.20
2007,08,15,12,41,24.30
2007,08,15,12,42,24.20
2007,08,15,12,43,24.20
2007,08,15,12,44,24.20
2007,08,15,12,45,24.20
2007,08,15,12,46,24.20
2007,08,15,12,47,24.20
2007,08,15,12,48,24.10
2007,08,15,12,49,24.10
2007,08,15,12,50,24.10
2007,08,15,12,51,24.10
2007,08,15,12,52,24.10
2007,08,15,12,53,24.10
2007,08,15,12,54,24.10
2007,08,15,12,55,24.10
2007,08,15,12,56,24.20
2007,08,15,12,57,24.20
2007,08,15,12,58,24.20
2007,08,15,12,59,24.20
2007,08,15,13,00,24.20
2007,08,15,13,01,24.10
2007,08,15,13,02,24.10
2007,08,15,13,03,24.20
2007,08,15,13,04,24.20
2007,08,15,13,05,24.20
2007,08,15,13,06,24.20
2007,08,15,13,07,24.20
2007,08,15,13,08,24.30
2007,08,15,13,09,24.40
2007,08,15,13,10,24.40
2007,08,15,13,11,24.50
2007,08,15,13,12,24.50
2007,08,15,13,13,24.40
2007,08,15,13,14,24.30
2007,08,15,13,15,24.40
2007,08,15,13,16,24.50
2007,08,15,13,17,24.60
2007,08,15,13,18,24.60
2007,08,15,13,19,24.60
2007,08,15,13,20,24.70
2007,08,15,13,21,24.70
2007,08,15,13,22,24.80
2007,08,15,13,23,24.80
2007,08,15,13,24,24.80
2007,08,15,13,25,24.80
2007,08,15,13,26,24.80
2007,08,15,13,27,24.80
2007,08,15,13,28,24.80
2007,08,15,13,29,24.80
2007,08,15,13,30,24.80
2007,08,15,13,31,24.80
2007,08,15,13,32,24.80
2007,08,15,13,33,24.80
2007,08,15,13,34,24.80
2007,08,15,13,35,24.80
2007,08,15,13,36,24.80
2007,08,15,13,37,24.80
2007,08,15,13,38,24.90
2007,08,15,13,39,25.00
2007,08,15,13,40,25.10
2007,08,15,13,41,25.10
2007,08,15,13,42,25.10
2007,08,15,13,43,25.20
2007,08,15,13,44,25.30
2007,08,15,13,45,25.30
2007,08,15,13,46,25.40
2007,08,15,13,47,25.40
2007,08,15,13,48,25.40
2007,08,15,13,49,25.40
2007,08,15,13,50,25.40
2007,08,15,13,51,25.50
2007,08,15,13,52,25.50
2007,08,15,13,53,25.50
2007,08,15,13,54,25.50
2007,08,15,13,55,25.50
2007,08,15,13,56,25.60
2007,08,15,13,57,25.50
2007,08,15,13,58,25.50
2007,08,15,13,59,25.40
2007,08,15,14,00,25.40
2007,08,15,14,01,25.30
2007,08,15,14,02,25.20
2007,08,15,14,03,25.10
2007,08,15,14,04,25.10
2007,08,15,14,05,25.20
2007,08,15,14,06,25.30
2007,08,15,14,07,25.40
2007,08,15,14,08,25.40
2007,08,15,14,09,25.50
2007,08,15,14,10,25.60
2007,08,15,14,11,25.80
2007,08,15,14,12,25.90
2007,08,15,14,13,26.00
2007,08,15,14,14,26.00
2007,08,15,14,15,26.00
2007,08,15,14,16,26.10
2007,08,15,14,17,26.10
2007,08,15,14,18,26.20
2007,08,15,14,19,26.20
2007,08,15,14,20,26.30
2007,08,15,14,21,26.30
2007,08,15,14,22,26.30
2007,08,15,14,23,26.20
2007,08,15,14,24,26.20
2007,08,15,14,25,26.20
2007,08,15,14,26,26.20
2007,08,15,14,27,26.30
2007,08,15,14,28,26.30
2007,08,15,14,29,26.30
2007,08,15,14,30,26.20
2007,08,15,14,31,26.20
2007,08,15,14,32,26.20
2007,08,15,14,33,26.10
2007,08,15,14,34,26.10
2007,08,15,14,35,26.10
2007,08,15,14,36,26.20
2007,08,15,14,37,26.30
2007,08,15,14,38,26.40
2007,08,15,14,39,26.50
2007,08,15,14,40,26.60
2007,08,15,14,41,26.60
2007,08,15,14,42,26.60
2007,08,15,14,43,26.50
2007,08,15,14,44,26.50
2007,08,15,14,45,26.60
2007,08,15,14,46,26.60
2007,08,15,14,47,26.70
2007,08,15,14,48,26.70
2007,08,15,14,49,26.70
2007,08,15,14,50,26.80
2007,08,15,14,51,26.80
2007,08,15,14,52,26.80
2007,08,15,14,53,26.70
2007,08,15,14,54,26.60
2007,08,15,14,55,26.60
2007,08,15,14,56,26.60
2007,08,15,14,57,26.50
2007,08,15,14,58,26.40
2007,08,15,14,59,26.40
2007,08,15,15,00,26.30
2007,08,15,15,01,26.20
2007,08,15,15,02,26.10
2007,08,15,15,03,26.00
2007,08,15,15,04,25.90
2007,08,15,15,05,25.90
2007,08,15,15,06,25.90
2007,08,15,15,07,25.80
2007,08,15,15,08,25.80
2007,08,15,15,09,25.80
2007,08,15,15,10,25.90
2007,08,15,15,11,26.00
2007,08,15,15,12,26.00
2007,08,15,15,13,26.10
2007,08,15,15,14,26.10
2007,08,15,15,15,26.20
2007,08,15,15,16,26.30
2007,08,15,15,17,26.30
2007,08,15,15,18,26.40
2007,08,15,15,19,26.40
2007,08,15,15,20,26.40
2007,08,15,15,21,26.30
2007,08,15,15,22,26.30
2007,08,15,15,23,26.30
2007,08,15,15,24,26.30
2007,08,15,15,25,26.40
2007,08,15,15,26,26.40
2007,08,15,15,27,26.60
2007,08,15,15,28,26.60
2007,08,15,15,29,26.60
2007,08,15,15,30,26.70
2007,08,15,15,31,26.60
2007,08,15,15,32,26.60
2007,08,15,15,33,26.60
2007,08,15,15,34,26.60
2007,08,15,15,35,26.70
2007,08,15,15,36,26.70
2007,08,15,15,37,26.80
2007,08,15,15,38,26.80
2007,08,15,15,39,26.80
2007,08,15,15,40,26.80
2007,08,15,15,41,26.80
2007,08,15,15,42,26.80
2007,08,15,15,43,26.80
2007,08,15,15,44,26.80
2007,08,15,15,45,26.90
2007,08,15,15,46,26.90
2007,08,15,15,47,26.90
2007,08,15,15,48,26.80
2007,08,15,15,49,26.80
2007,08,15,15,50,26.80
2007,08,15,15,51,26.70
2007,08,15,15,52,26.70
2007,08,15,15,53,26.70
2007,08,15,15,54,26.80
2007,08,15,15,55,26.80
2007,08,15,15,56,27.00
2007,08,15,15,57,27.10
2007,08,15,15,58,27.10
2007,08,15,15,59,27.10
2007,08,15,16,00,27.10
2007,08,15,16,01,27.10
2007,08,15,16,02,27.20
2007,08,15,16,03,27.30
2007,08,15,16,04,27.30
2007,08,15,16,05,27.30
2007,08,15,16,06,27.30
2007,08,15,16,07,27.30
2007,08,15,16,08,27.30
2007,08,15,16,09,27.40
2007,08,15,16,10,27.50
2007,08,15,16,11,27.70
2007,08,15,16,12,27.80
2007,08,15,16,13,27.80
2007,08,15,16,14,27.90
2007,08,15,16,15,28.00
2007,08,15,16,16,28.00
2007,08,15,16,17,28.00
2007,08,15,16,18,28.00
2007,08,15,16,19,28.00
2007,08,15,16,20,28.00
2007,08,15,16,21,28.00
2007,08,15,16,22,28.00
2007,08,15,16,23,27.90
2007,08,15,16,24,27.80
2007,08,15,16,25,27.80
2007,08,15,16,26,27.90
2007,08,15,16,27,27.90
2007,08,15,16,28,28.00
2007,08,15,16,29,28.10
2007,08,15,16,30,28.20
2007,08,15,16,31,28.20
2007,08,15,16,32,28.20
2007,08,15,16,33,28.20
2007,08,15,16,34,28.00
2007,08,15,16,35,28.00
2007,08,15,16,36,28.00
2007,08,15,16,37,27.90
2007,08,15,16,38,27.80
2007,08,15,16,39,27.80
2007,08,15,16,40,27.80
2007,08,15,16,41,27.70
2007,08,15,16,42,27.70
2007,08,15,16,43,27.70
2007,08,15,16,44,27.70
2007,08,15,16,45,27.70
2007,08,15,16,46,27.70
2007,08,15,16,47,27.70
2007,08,15,16,48,27.60
2007,08,15,16,49,27.50
2007,08,15,16,50,27.40
2007,08,15,16,51,27.30
2007,08,15,16,52,27.20
2007,08,15,16,53,27.10
2007,08,15,16,54,27.00
2007,08,15,16,55,26.80
2007,08,15,16,56,26.80
2007,08,15,16,57,26.70
2007,08,15,16,58,26.70
2007,08,15,16,59,26.70
2007,08,15,17,00,26.60
2007,08,15,17,01,26.60
2007,08,15,17,02,26.60
2007,08,15,17,03,26.60
2007,08,15,17,04,26.60
2007,08,15,17,05,26.60
2007,08,15,17,06,26.60
2007,08,15,17,07,26.60
2007,08,15,17,08,26.60
2007,08,15,17,09,26.60
2007,08,15,17,10,26.60
2007,08,15,17,11,26.60
2007,08,15,17,12,26.70
2007,08,15,17,13,26.90
2007,08,15,17,14,27.00
2007,08,15,17,15,27.10
2007,08,15,17,16,27.20
2007,08,15,17,17,27.30
2007,08,15,17,18,27.30
2007,08,15,17,19,27.30